This is the latest recevied weather packets stored in our database for station/object KJ5JYX. If no packets are shown the sender has not sent any weather packets the latest 10 day(s).
| Time | Temp. | Humidity | Pressure | Rain* | Wind** | Luminosity | Snow |
|---|---|---|---|---|---|---|---|
| 1777734337 | 16.67° C | 72% | 1024.6 hPa | 0 mm | - | 371 W/m² | - |
| 1777734033 | 16.11° C | 71% | 1024.7 hPa | 0 mm | - | 351 W/m² | - |
| 1777733730 | 16.11° C | 75% | 1024.7 hPa | 0 mm | - | 236 W/m² | - |
| 1777733426 | 16.11° C | 77% | 1024.6 hPa | 0 mm | - | 175 W/m² | - |
| 1777733122 | 16.11° C | 77% | 1024.8 hPa | 0 mm | - | 118 W/m² | - |
| 1777732820 | 15.56° C | 79% | 1024.6 hPa | 0 mm | - | 59 W/m² | - |
| 1777732516 | 15.56° C | 80% | 1024.6 hPa | 0 mm | - | 244 W/m² | - |
| 1777732214 | 15° C | 81% | 1024.6 hPa | 0 mm | - | 118 W/m² | - |
| 1777731911 | 14.44° C | 81% | 1024.5 hPa | 0 mm | - | 143 W/m² | - |
| 1777731607 | 14.44° C | 80% | 1024.5 hPa | 0 mm | - | 140 W/m² | - |
| 1777731305 | 14.44° C | 83% | 1024.7 hPa | 0 mm | - | 133 W/m² | - |
| 1777731002 | 13.89° C | 84% | 1024.6 hPa | 0 mm | - | 48 W/m² | - |
| 1777730701 | 13.89° C | 85% | 1024.4 hPa | 0 mm | - | 52 W/m² | - |
| 1777730396 | 13.33° C | 86% | 1024.4 hPa | 0 mm | - | 45 W/m² | - |
| 1777730092 | 13.33° C | 88% | 1024.4 hPa | 0 mm | - | 41 W/m² | - |
| 1777729789 | 12.78° C | 90% | 1024.6 hPa | 0 mm | - | 50 W/m² | - |
| 1777729486 | 12.78° C | 92% | 1024.3 hPa | 0 mm | - | 59 W/m² | - |
| 1777729183 | 12.78° C | 92% | 1024.1 hPa | 0 mm | - | 38 W/m² | - |
| 1777728879 | 12.22° C | 95% | 1024.3 hPa | 0 mm | - | 37 W/m² | - |
| 1777728577 | 11.67° C | 96% | 1024.1 hPa | 0 mm | - | 35 W/m² | - |
| 1777728273 | 11.67° C | 97% | 1023.9 hPa | 0 mm | - | 34 W/m² | - |
| 1777727971 | 10.56° C | 98% | 1023.8 hPa | 0 mm | - | 33 W/m² | - |
| 1777727667 | 10.56° C | 99% | 1023.8 hPa | 0 mm | - | 48 W/m² | - |
| 1777727365 | 10.56° C | 99% | 1023.8 hPa | 0 mm | - | 30 W/m² | - |
| 1777727062 | 10° C | 99% | 1023.8 hPa | 0 mm | - | 29 W/m² | - |
* Rain latest hour (hover to see other rain measurements)
** Current wind speed in m/s (hover to see current wind gust speed)